[[{"header":{"parameterUnit":"m.s-1","parameterCategory":1,"la1":30.2991,"la2":30.254,"lo1":-89.0895,"lo2":-89.0444,"dy":0.0017,"dx":0.0017,"nx":28,"ny":28,"refTime":"2024-07-20T09:00:00:Z","depth":0,"parameterNumber":2,"parameterNumberName":"U-component_of_WINDS"},"data":[0,0,0,0,0,0,0,0,0,0,0,0,0,0,0,0,0,0,0,0,0,0,0,0,0,0,0,0,0,0,0,0,0,0,0,0,0,0,0,0,0,0,0,0,0,0,0,0,0,0,0,0,0,0,0,0,0,0,4.9392,4.9394,0,4.9563,4.9565,4.9567,4.954,4.9537,4.9534,4.9531,4.9698,4.9705,4.9712,0,0,0,0,0,0,0,0,0,0,0,0,0,4.9032,4.9039,4.9392,4.9394,4.9397,4.9563,4.9565,4.9568,4.954,4.9537,4.9533,4.953,4.9695,4.9704,4.9712,0,0,0,0,0,0,0,0,0,0,0,0,0,4.9194,4.9041,4.9392,4.9403,4.9406,4.9563,4.9566,4.9568,4.9541,4.9537,4.9532,4.9528,4.9693,4.9703,4.9714,4.9867,0,0,4.9746,4.9751,0,0,0,0,0,0,0,0,4.9185,4.9207,4.9399,4.9403,4.9406,4.9526,4.95,4.9668,4.9542,4.9489,4.9531,4.9526,4.9644,4.9658,4.9699,4.9875,4.9882,4.9747,4.9754,4.9758,4.9762,0,0,0,0,0,0,0,4.9174,4.92,4.946,4.9402,4.9406,4.9396,4.9415,4.9531,4.9589,4.9494,4.9492,4.9513,4.9644,4.9689,4.9703,4.9885,4.9747,4.9757,4.9763,4.9767,5.0191,5.0196,0,0,0,0,0,0,4.9161,4.9191,4.9454,4.9465,4.9283,4.9407,4.9427,4.9492,4.9587,4.9598,4.9517,4.9511,4.9673,4.9691,4.9709,4.9892,4.9758,4.9768,4.9775,5.0187,5.0192,5.0198,0,0,0,0,0,0,4.9153,4.9185,4.9447,4.9328,4.936,4.9417,4.949,4.9497,4.9542,4.9605,4.9614,4.9553,4.967,4.9694,4.9828,4.9898,4.9773,4.9783,5.0181,5.0188,5.0195,5.0262,0,0,0,0,0,0,4.9143,4.9182,4.9243,4.9329,4.9367,4.9567,4.9495,4.9504,4.9562,4.9556,4.9641,4.9651,4.9669,4.9812,4.9839,4.991,4.9791,5.0175,5.0184,5.0193,5.0254,5.0271,5.0285,0,0,0,0,0,4.913,4.9254,4.9247,4.9279,4.9445,4.9571,4.9592,4.9613,4.9568,4.9628,4.9668,4.9648,4.9887,4.9826,4.9856,4.9932,5.017,5.0181,5.0192,5.0247,5.0267,5.0285,0,0,0,0,0,0,4.9172,4.9266,4.9258,4.9415,4.9485,4.9566,4.9643,4.9634,4.9717,4.9708,4.9727,4.9747,4.9882,4.9921,4.9852,5.0084,5.0022,5.0039,5.0053,5.0073,5.0089,5.0075,4.98,0,0,0,0,0,4.92,4.9298,4.9373,4.9503,4.9539,4.9585,4.9641,4.9651,4.9723,4.9752,4.9802,4.9871,4.9961,5.002,5.0106,5.026,5.0276,5.0327,5.0342,5.0355,5.0368,5.0449,5.0471,5.0233,5.0233,5.0233,0,0,4.9258,4.9321,4.9381,4.9513,4.9569,4.9666,4.961,4.9716,4.9786,4.9767,4.9897,4.9936,5.0014,5.0158,5.0223,5.0194,5.0438,5.0369,5.0378,5.0385,5.0462,5.0485,5.0504,5.0241,5.0239,5.0238,0,0,4.9411,4.9471,4.9585,4.9643,4.9729,4.9758,4.9786,4.9868,4.9894,5.0025,5.0012,5.0095,5.0251,5.0306,5.0355,5.0529,5.0512,5.0556,5.0637,5.0715,5.0733,5.075,5.0808,5.0829,5.057,5.0571,5.0571,0,4.9471,4.962,4.9643,4.975,4.9807,4.9798,4.991,4.9964,5.0073,5.0111,5.0078,5.0272,5.0324,5.0478,5.0521,5.0562,5.059,5.0545,5.073,5.0746,5.0762,5.0818,5.084,5.0575,5.0575,5.0574,5.0574,0,4.9686,4.9789,4.987,4.9978,5.0045,5.0154,5.0191,5.0255,5.0259,5.0291,5.0423,5.0485,5.0583,5.0621,5.0625,5.0776,5.0754,5.0725,5.0663,5.0789,5.0841,5.0863,5.0582,5.058,5.0579,5.0577,0,0,4.9869,4.999,5.0019,5.0067,5.0161,5.0239,5.0347,5.0445,5.0497,5.0573,5.066,5.0793,5.0766,5.0821,5.0831,5.0901,5.103,5.0863,5.0864,5.0888,5.1194,5.1212,5.1237,5.1021,5.1025,5.1028,5.1186,0,5.0029,5.0222,5.0246,5.0416,5.0509,5.0501,5.0594,5.066,5.0693,5.0774,5.0809,5.09,5.0861,5.0893,5.0962,5.1,5.109,5.0989,5.1098,5.1101,5.1075,5.1265,5.1285,5.1431,5.1207,5.1211,5.1213,0,5.024,5.0324,5.0504,5.0584,5.0624,5.0707,5.0798,5.0877,5.095,5.0969,5.1031,5.1032,5.1139,5.1075,5.122,5.115,5.1196,5.1222,5.1228,5.1235,5.1162,5.1274,5.1479,5.1499,5.1246,5.1244,5.1241,0,5.035,5.0508,5.0635,5.0677,5.0775,5.0833,5.0876,5.0946,5.1002,5.1081,5.1117,5.1206,5.1254,5.1321,5.1345,5.1297,5.1487,5.1426,5.1502,5.1501,5.1539,5.1536,5.175,5.1576,5.1575,5.1575,5.1575,0,5.0524,5.0633,5.0686,5.0764,5.0884,5.0911,5.1028,5.1068,5.113,5.1212,5.1211,5.1288,5.1317,5.1397,5.1417,5.1531,5.1554,5.1568,5.1571,5.1567,5.1564,5.1594,5.1583,5.1581,5.158,5.1578,5.1577,0,5.0666,5.0707,5.0844,5.0926,5.0949,5.1034,5.1102,5.1175,5.1208,5.1312,5.1337,5.1387,5.1481,5.1513,5.1627,5.164,5.1772,5.1768,5.1748,5.1747,5.1819,5.181,5.2057,5.2089,5.1898,5.1899,5.1901,0,5.0772,5.0856,5.0947,5.1004,5.105,5.1141,5.1199,5.1228,5.1288,5.1378,5.1439,5.1533,5.161,5.176,5.1804,5.189,5.1886,5.1966,5.1898,5.189,5.1882,5.1875,5.1881,5.1978,5.198,5.1981,5.1983,0,5.0954,5.097,5.1056,5.1149,5.122,5.1294,5.1365,5.141,5.1449,5.1516,5.1614,5.1674,5.179,5.1882,5.197,5.201,5.2001,5.2004,5.2026,5.2019,5.2002,5.2008,5.1778,5.1997,5.1996,5.1995,5.1994,5.1994,5.1078,5.1151,5.1227,5.1322,5.138,5.1446,5.1518,5.1561,5.1644,5.1743,5.1755,5.1859,5.1927,5.2045,5.2089,5.2168,5.2145,5.2177,5.2184,5.2191,5.2194,5.1993,5.2185,5.2184,5.2184,5.2184,5.2184,0,5.1256,5.1305,5.1393,5.1494,5.1568,5.1558,5.1636,5.1697,5.179,5.1857,5.1933,5.2044,5.2133,5.2184,5.2272,5.2326,5.2323,5.2347,5.2341,5.235,5.2212,5.2183,5.2347,5.2347,5.2347,5.2347,5.2347,5.2347,5.1358,5.148,5.1505,5.1655,5.1702,5.1807,5.1851,5.1911,5.1964,5.2089,5.2164,5.2199,5.2258,5.235,5.243,5.2442,5.2473,5.2498,5.2508,5.2377,5.236,5.2344,5.2316,5.2506,5.2506,5.2638,5.2639,5.264]},{"header":{"parameterUnit":"m.s-1","parameterCategory":1,"la1":30.2991,"la2":30.254,"lo1":-89.0895,"lo2":-89.0444,"dy":0.0017,"dx":0.0017,"nx":28,"ny":28,"refTime":"2024-07-20T09:00:00:Z","depth":0,"parameterNumber":3,"parameterNumberName":"V-component_of_WINDS"},"data":[0,0,0,0,0,0,0,0,0,0,0,0,0,0,0,0,0,0,0,0,0,0,0,0,0,0,0,0,0,0,0,0,0,0,0,0,0,0,0,0,0,0,0,0,0,0,0,0,0,0,0,0,0,0,0,0,0,0,2.4084,2.4084,0,2.4076,2.4076,2.4076,2.404,2.4039,2.4038,2.4038,2.4028,2.4028,2.4029,0,0,0,0,0,0,0,0,0,0,0,0,0,2.4069,2.407,2.4084,2.4084,2.4084,2.4076,2.4076,2.4076,2.404,2.4039,2.4038,2.4037,2.4028,2.4028,2.4029,0,0,0,0,0,0,0,0,0,0,0,0,0,2.407,2.407,2.4084,2.4065,2.4064,2.4076,2.4076,2.4076,2.404,2.4039,2.4038,2.4037,2.4027,2.4028,2.4029,2.4058,0,0,2.4031,2.4032,0,0,0,0,0,0,0,0,2.407,2.4071,2.4068,2.4067,2.4065,2.4058,2.4067,2.407,2.4041,2.4049,2.4038,2.4036,2.4039,2.4038,2.404,2.4058,2.4058,2.4031,2.4032,2.4032,2.4032,0,0,0,0,0,0,0,2.407,2.4071,2.4081,2.4068,2.4066,2.4057,2.4056,2.4067,2.4051,2.4048,2.4046,2.4045,2.4037,2.4039,2.4039,2.4057,2.4031,2.4032,2.4032,2.4033,2.4101,2.4102,0,0,0,0,0,0,2.4073,2.4071,2.4081,2.4081,2.4064,2.4059,2.4057,2.4061,2.4051,2.4048,2.4046,2.4044,2.4038,2.4038,2.4039,2.4073,2.4032,2.4033,2.4033,2.4099,2.4101,2.4102,0,0,0,0,0,0,2.4073,2.4074,2.4082,2.4075,2.4075,2.406,2.4065,2.4062,2.4063,2.4049,2.4046,2.4051,2.4037,2.4038,2.4054,2.4072,2.4033,2.4034,2.4098,2.41,2.4102,2.4141,0,0,0,0,0,0,2.4072,2.4074,2.4085,2.4076,2.4076,2.4097,2.4066,2.4062,2.4065,2.4061,2.4053,2.405,2.4036,2.4053,2.4055,2.4072,2.4034,2.4096,2.4099,2.4101,2.4138,2.4144,2.4149,0,0,0,0,0,2.4072,2.4096,2.4086,2.4087,2.4089,2.4098,2.4098,2.4082,2.4066,2.4077,2.4069,2.405,2.407,2.4055,2.4057,2.4075,2.4095,2.4098,2.4101,2.4135,2.4143,2.4149,0,0,0,0,0,0,2.4107,2.4094,2.4083,2.4105,2.4103,2.4092,2.4105,2.4091,2.4093,2.409,2.407,2.4068,2.4088,2.4083,2.4067,2.4103,2.4079,2.4083,2.4105,2.4112,2.4118,2.4118,2.4035,0,0,0,0,0,2.4117,2.4126,2.4114,2.4135,2.4135,2.412,2.4124,2.4112,2.4109,2.4108,2.41,2.4098,2.4104,2.4108,2.4112,2.4138,2.4135,2.4151,2.4157,2.4161,2.4164,2.4178,2.4185,2.4112,2.4112,2.4112,0,0,2.4138,2.4133,2.4139,2.4142,2.4139,2.4148,2.412,2.4131,2.4137,2.4109,2.4124,2.4119,2.4116,2.4137,2.4146,2.4134,2.4184,2.4165,2.4169,2.4169,2.4182,2.4188,2.4195,2.4114,2.4114,2.4114,0,0,2.4181,2.4178,2.4195,2.4193,2.419,2.4181,2.4185,2.4177,2.4173,2.4188,2.4167,2.4175,2.4186,2.4184,2.4184,2.423,2.4213,2.4232,2.4261,2.4274,2.428,2.4285,2.4301,2.4306,2.4235,2.4235,2.4235,0,2.4207,2.4221,2.4205,2.4218,2.422,2.4196,2.4213,2.4212,2.4211,2.4212,2.4199,2.4212,2.4208,2.4229,2.424,2.4242,2.4246,2.4232,2.428,2.4285,2.4289,2.4304,2.431,2.4237,2.4237,2.4237,2.4237,0,2.4253,2.4263,2.4277,2.4277,2.4281,2.4296,2.4282,2.4288,2.4277,2.4269,2.4285,2.428,2.4283,2.4288,2.4276,2.4307,2.43,2.4284,2.4259,2.4299,2.4312,2.4318,2.4241,2.424,2.4239,2.4239,0,0,2.4315,2.4309,2.4314,2.4314,2.431,2.4317,2.4331,2.4335,2.4341,2.4341,2.4352,2.4363,2.4348,2.4349,2.4337,2.4349,2.4386,2.4332,2.4332,2.4342,2.442,2.4431,2.4438,2.4375,2.4376,2.4377,2.442,0,2.4356,2.438,2.4367,2.4393,2.4402,2.4381,2.4394,2.4393,2.4387,2.4394,2.4387,2.4394,2.4375,2.4375,2.4386,2.4379,2.4401,2.4376,2.4385,2.4386,2.4385,2.4445,2.4456,2.4497,2.4425,2.4426,2.4427,0,2.4406,2.441,2.4436,2.4432,2.4435,2.4447,2.445,2.4457,2.4456,2.4451,2.4453,2.4439,2.4453,2.443,2.4449,2.4432,2.4436,2.4433,2.4434,2.4433,2.4407,2.4445,2.4509,2.4515,2.4435,2.4434,2.4434,0,2.4448,2.446,2.4478,2.4478,2.4474,2.4482,2.4481,2.4478,2.4482,2.4485,2.4488,2.4492,2.4495,2.4499,2.4486,2.4471,2.4507,2.4483,2.4503,2.4503,2.451,2.4509,2.4575,2.4514,2.4514,2.4514,2.4514,0,2.4494,2.4511,2.4497,2.4507,2.4526,2.4512,2.4531,2.4527,2.4526,2.4536,2.4518,2.4528,2.4512,2.452,2.451,2.4527,2.4529,2.4525,2.4522,2.4525,2.4526,2.4526,2.4523,2.4515,2.4515,2.4515,2.4514,0,2.4543,2.4534,2.4552,2.4547,2.4546,2.4561,2.4556,2.4566,2.456,2.4572,2.4574,2.4564,2.4573,2.4562,2.4569,2.4563,2.4586,2.458,2.4587,2.4584,2.4604,2.4602,2.4671,2.4679,2.4615,2.4615,2.4616,0,2.4572,2.4585,2.4582,2.4588,2.4588,2.4597,2.4601,2.4589,2.4594,2.4595,2.4604,2.4612,2.4617,2.4632,2.4625,2.4631,2.4623,2.4648,2.4624,2.4628,2.4623,2.4622,2.4623,2.4652,2.4652,2.4653,2.4654,0,2.4624,2.462,2.4627,2.4634,2.4639,2.4643,2.4646,2.4652,2.4639,2.4646,2.4655,2.4659,2.4667,2.4675,2.4679,2.4677,2.4663,2.4661,2.4666,2.4669,2.4673,2.4671,2.4598,2.4659,2.4659,2.4658,2.4658,2.4658,2.4664,2.4675,2.4675,2.4684,2.4685,2.4688,2.4698,2.4694,2.4701,2.4707,2.47,2.4711,2.4711,2.4716,2.4716,2.4724,2.4714,2.4721,2.4722,2.4724,2.4727,2.4673,2.4725,2.4725,2.4725,2.4725,2.4725,0,2.4715,2.4714,2.4723,2.4728,2.4735,2.4724,2.4726,2.4733,2.4744,2.4745,2.4751,2.4762,2.477,2.4765,2.4772,2.478,2.4773,2.4782,2.478,2.478,2.4736,2.4731,2.4787,2.4787,2.4787,2.4787,2.4787,2.4787,2.4742,2.476,2.4756,2.4775,2.4774,2.4786,2.4789,2.4792,2.4793,2.4807,2.4814,2.4811,2.4809,2.4816,2.4823,2.4821,2.4824,2.4835,2.4831,2.4789,2.4783,2.4777,2.4772,2.4836,2.4836,2.4874,2.4874,2.4874]}]]